Location: Bluff Heights
(33.7692°N, 118.1592°W)
Time: 00:19:43
(UTC+00:00)

Tiros 1 - Pass Details

Date: 27 July 2021
Orbit: 630 x 663 km, 48.4° (Epoch: 20 September)

Event Time Altitude Azimuth Distance (km) Brightness Sun altitude
Rises 09:49:58 0° 310° (NW) 2,936 10.6 -30.9°
Enters shadow 09:50:19 - 311° (NW) 2,797 10.5 -30.9°
Reaches altitude 10° 09:52:19 10° 314° (NW) 2,021 - -30.6°
Maximum altitude 09:56:56 65° 36° (NE) 693 - -30.1°
Drops below altitude 10° 10:01:31 10° 119° (ESE) 2,000 - -29.6°
Sets 10:03:50 0° 122° (ESE) 2,904 - -29.4°
